Lid_Strength_Index
13 14 13 13 14 14 13 13 12 11 11 10 9 9 8 7 5 4 3 1 1 1
14 14 14 14 13 13 13 13 12 12 12 11 11 10 9 8 8 6 4 4 1 1
14 14 14 14 14 14 13 13 13 13 12 12 11 11 10 9 8 8 5 5 2 1
14 13 12 12 12 12 12 12 13 13 13 12 12 11 10 10 10 9 8 6 6 2
11 11 11 11 10 10 11 10 11 11 12 12 12 11 11 11 10 10 10 8 5 6
9 9 9 8 8 8 8 8 8 8 9 9 10 10 10 10 10 9 9 9 7 6
9 9 8 8 8 8 8 8 8 8 8 7 7 7 8 8 8 9 8 8 7 6
9 9 9 9 8 8 8 8 8 8 8 8 7 7 7 7 7 8 8 8 6 5
9 9 9 9 9 8 8 8 8 8 8 8 8 7 6 6 7 7 7 7 6 6
9 9 9 8 8 8 8 7 8 8 8 8 8 7 7 6 6 6 7 7 8 7
8 8 8 8 8 8 8 8 8 8 8 8 8 6 6 6 6 6 6 8 8 7
8 8 8 8 8 8 8 8 8 7 8 8 9 7 6 6 7 6 7 8 8 6
9 10 9 9 8 8 7 7 7 7 7 7 8 7 6 6 6 7 8 8 6 5
10 9 9 9 8 8 8 8 8 8 7 7 7 7 6 6 7 8 8 9 6 4